Airfield :
LOGIN :

Register | Disclaimer

   EN    FR    IT 

 










Legend :    VFR   Marginal VFR   IFR   Intensive IFR   Very Intensive IFR
Visi :
Ceiling :
>= 8 km
>= 3000ft
5 to 8 km
1000 to 3000 ft
1500m to 5 km
500 to 1000 ft
800 to 1500m
200 to 500 ft
< 800m
< 200 ft
Symbols :   Thunderstorms  Fog  Heavy snow  Heavy precipitations  Wind > 20 kt
SIGMETs :     Misc.  Thunderstorms  Icing  Turbulence  Mountain Waves  Volcanic Ashes







- Airport Elevation : 538 ft
- IATA code : TNF
- Download approach charts


LFPN - Toussus Le Noble

CURRENT METAR :
  • 160500Z AUTO 15001KT 4700 BR NSC M00/M01 Q1026

EXPIRED METARs :
  • 160430Z AUTO 00000KT 5000 BR NSC M00/M01 Q1026
  • 160400Z AUTO 00000KT 6000 NSC M01/M02 Q1026
  • 160330Z AUTO 00000KT 6000 1600 R25R/1200D NSC 01/M00 Q1026
  • 160300Z AUTO 00000KT 6000 NSC 00/M01 Q1026
  • 160230Z AUTO 00000KT 5000 BR NSC 01/M01 Q1026

Expired Forecast.
ATIS : +33 1 39 56 54 70
No reported NOTAMs for that airfield.



MET'MAP, your aeronautical weather chart ! - Copyright ORBIFLY December 2007 - Disclaimer

ORBIFLY MET'MAP TEAM :

Programming & Development : Alexandra Zaïnal
Concept & Development : Baudouin d'Aumeries
Co-Development & Prog : Marc-Olivier Méhu
Technical & hardware support : Manuel Goepfert

Contact : metmap@orbifly.com




SOURCES & CREDITS :

   NOAA